Погода в Стерлитамаке

Погода в Стерлитамаке : погода сейчас, прогноз погоды и архив. Всё, что Вы хотите узнать о погоде в Стерлитамаке!

Хотите узнать прогноз погоды в Стерлитамаке? Тогда Вам сюда: Погода в Стерлитамаке

Поиск расширенной информации на нашем сайте:

Полезная информация:

Другие новости

Новости СМИ2

Главная страница сайта

Новости сайта

03.07.2017

Напоминаем, что на нашем специализированном сайте Метеоцентр.Азия вы можете получить высокодетализированные автоматические прогнозы погоды по пунктам России, СНГ и мира в авиационном формате (включающие направление и скорость ветра, видимость, явления погоды, количество и форму облачности, нижнюю и верхнюю границу облачности).

Рекомендуем:

Погода в Стерлитамаке - сегодня

Время (UTC), дата Ветер
(°,м/с) 
Видим.   Явления Облачность Т
(°С)
Тd
(°С)
f(%) Тe
(°С)
Pmin
(гПа)
dP
(гПа)
Po
(мм)
O2
(г/м3)
Тmin Tmax R s Состояние
почвы
09 15.09.19 210 (ЮЗ) 20000 м    8/3 1000 м кучево-дожд., средняя, верхняя 
[Cb cap|Ac trans|Cc]
+24.3 +3.8 26 +24  1011.5  -1.5  747  276           
12 15.09.19 270 (З) 2{13}  10 км    9/9 600 м кучево-дожд. 
[Cb cap]
+21.3 +5.1 35 +21  1011.3  -0.4  747  278           
15 15.09.19 280 (З) 10 км  слаб. ливневой дождь  10/10 600 м кучево-дожд. 
[Cb cap]
+15.9 +9.4 65 +17  1012.2  0.3  747  283    +25.6  0.1     
18 15.09.19 200 (Ю) 10 км  в посл. час ливневой дождь  10/10 600 м кучево-дожд. 
[Cb cap]
+13.5 +10.2 80 +17  1012.1  -0.3  747  285           
21 15.09.19 220 (ЮЗ) 10 км  слаб. ливневой дождь  10/10 600 м кучево-дожд. 
[Cb cap]
+11.9 +10 88 +14  1011.1  -1  746  286           
00 16.09.19 200 (Ю) 10 км  в посл. час ливневой дождь  9/9 600 м кучево-дожд. 
[Cb cap]
+11 +9.4 90 +13  1011.2  -0.1  746  287           
03 16.09.19 190 (Ю) 10 км    9/0 верхняя 
[Ci fib]
+9.5 +8.1 91 +11  1011  -0.3  746  289  +9.1      влажная 
06 16.09.19 200 (Ю) 10 км    6/6 1000 м 
[Sc]
+13.8 +9.2 74 +14  1010.6  0.1  746  284           
09 16.09.19 270 (З) 10 км  {ливн. осадки}  8/8 600 м кучево-дожд. 
[Cb cap]
+13.7 +7.4 66 +14  1009.6  -1  745  285           
12 16.09.19 240 (ЮЗ) 3{10}  10 км  {ливн. осадки}  9/8 600 м кучево-дожд., средняя 
[Cb cap|Ac trans]
+15 +2.2 42 +15  1008.9  -0.6  745  284           
15 16.09.19 220 (ЮЗ) 10 км  слаб. ливневой дождь  10/10 600 м кучево-дожд. 
[Cb cap]
+13.1 +3.4 52 +14  1008.5  -0.5  744  286    +15.9     
18 16.09.19 200 (Ю) 10 км  слаб. ливневой дождь  10/10 600 м кучево-дожд. 
[Cb cap]
+11.2 +5.1 66 +11  1008.1  -0.5  744  287           
21 16.09.19 200 (Ю) 10 км  {ливн. осадки}  10/10 600 м кучево-дожд. 
[Cb cap]
+11.6 +4.3 61 +11  1005.2  -2.8  742  286           
00 17.09.19 210 (ЮЗ) 10 км  {ливн. осадки}  10/10 1000 м кучево-дожд. 
[Cb cap]
+12.1 +4.2 58 +12  1003.7  -1.4  741  285           
03 17.09.19 230 (ЮЗ) 20000 м    8/4 1000 м кучево-дожд., верхняя 
[Cb cap|Ci fib]
+11.6 +4.8 63 +13  1004.5  0.8  741  286  +10.9    0.1    влажная 
06 17.09.19 240 (ЮЗ) 20000 м    9/0 средняя, верхняя 
[Ac trans|Ci sp]
+16.5 +5.9 49 +17  1005.1  0.8  742  281           
09 17.09.19 230 (ЮЗ) 4{11}  20000 м    8/8 1000 м верхняя 
[Cu med, cong|Ci fib]
+19.4 +4.1 36 +20  1004.3  -0.7  741  278           
12 17.09.19 210 (ЮЗ) 10 км    9/6 1000 м кучево-дожд., средняя, верхняя 
[Cb cap|Ac trans|Ci ing]
+18.5 +5.6 43 +19  1003.8  -0.6  741  279           
15 17.09.19 190 (Ю) 10 км    10/10 600 м кучево-дожд. 
[Cb cap]
+15.1 +6.4 56 +16  1003.9  741  282    +20.4       
18 17.09.19 190 (Ю) 10 км    9/9 600 м кучево-дожд. 
[Cb cap]
+13.6 +8.1 69 +15  1004  741  283           
21 17.09.19 210 (ЮЗ) 10 км    3/0 средняя 
[Ac trans]
+12.7 +8.4 75 +14  1003.6  -0.4  740  284           
00 18.09.19 тихо ()   н/о    н/о 
+12.5 +8.2 75 +13  1002.7  -0.9  740  284           
03 18.09.19 170 (Ю) 10 км  слаб. ливневой дождь  10/10 600 м кучево-дожд. 
[Cb cap]
+11.4 +9.2 86 +13  1003.5  0.7  740  285  +11.2    0.8    влажная 
06 18.09.19 180 (Ю) 10 км  {ливн. осадки}  10/10 600 м кучево-дожд. 
[Cb cap]
+11.9 +9.7 86 +13  1003.5  0.1  740  284           
09 18.09.19 170 (Ю) 10 км  {ливн. осадки}  9/8 600 м кучево-дожд., средняя 
[Cb cap|Ac trans]
+13.4 +11 85 +17  1003.9  0.4  741  282           
Время (UTC), дата Ветер
(°,м/с) 
Видим.   Явления Облачность Т
(°С)
Тd
(°С)
f(%) Тe
(°С)
Pmin
(гПа)
dP
(гПа)
Po
(мм)
O2
(г/м3)
Тmin Tmax R s Состояние
почвы

Для получения пояснительной информации подведите курсор к названию столбца.

ПОГОДА в Стерлитамаке - архив

Всё, что Вы хотите узнать о погоде в Стерлитамаке - удобно и подробно!

Выберите нужную дату (начиная с 1 января 2018* года) и нажмите кнопку "Найти".
Будут отображены архивные сводки погоды по пункту Стерлитамак, начиная с указанной даты.


Отображать данные в формате CSV (для использования в таблицах Excel)


Внимание! Наш архив погоды предназначен исключительно для личного некоммерческого использования в познавательных целях. Если Вам необходимы официальные справки о состоянии погоды (для производственных, юридических, коммерческих и т.п. целей), обращайтесь в органы Росгидромета.

*Примечание: данная дата относится к архиву по метеостанциям СССР (Россия, СНГ, Балтия).
Архив по метеостанциям Зарубежной Европы и Азии (кроме Китая) хранится 10 дней, по другим регионам земного шара (Китай, Африка, Америка, Австралия, Океания) - 1 день.

Стерлитамак - район местоположения метеостанции


Название, широта, долгота, высота метеостанции:
Стерлитамак 53.6°ш. 56°д. 137 м над ур. моря [Российская Федерация]

Дополнительная информация

В oтличие oт бoльшинства пoгoдных сайтoв мы публикуем пoдрoбную метеoинфoрмацию в детальнoм прoфессиoнальнoм фoрмате.

Характеристики температуры и влажнoсти вoздуха измеряются на высoте 2 м в тени вдали oт зданий и деревьев.
Скoрoсть ветра измеряется на высoте 10 м (на урoвне рoста челoвека скoрoсть ветра ниже в 1.5-2 раза). Если метеoстанция нахoдится в гoрoде или в лесу, тo скoрoсть ветра занижена на 2-4 м/с пo сравнению с oткрытым местoм. Скoрoсть ветра над акватoриями крупных рек и oзёр, а также на вершинах хoлмoв на 2-5 м/с выше, чем в oбычных услoвиях.
Атмoсфернoе давление в разных тoчках местнoсти мoжет значительнo oтличаться oт давления на метеoстанции, в зависимoсти oт услoвий рельефа (при пoдъёме на 10 м давление пoнижается примернo на 1 мм рт.ст.).